Weather in Taunusstein

Germany     50°08′24″N   8°08′45″E
temp.,
°C
wind,
m/s
gust,
m/s
humid.,
%
clouds,
%
prec.,
mm/h
press.,
hPa
HPBL,
m
6 may, thu
thu623:00+2sw289362 0.1 1012154
02:00+1sw399398 0.1 1011216
05:00+2sw3995100 0.1 1010336
08:00+4sw3990100 0.1 1010691
11:00+8wsw476383 0.4 10091637
14:00+8ssw357198 0.7 10071044
17:00+5s3595100 1.3 1005833
20:00+5sse1497100 5.9 1003589
7 may, fri
fri723:00+4nw2598100 2.9 1004522
02:00+3w51098100 3.0 1007886
05:00+3wnw51093100 0.2 1010810
08:00+3w599286 0.3 1012647
11:00+5w5775100 0.1 10141062
14:00+5nw587927 1.3 1016943
17:00+9nw574236 0.1 10162134
20:00+7wnw22644 0.1 101831
8 may, sat
sat823:00+3sw11735 0.0 102010
02:00+2ssw118214 0.0 102010
05:00+1s118363 0.0 102010
08:00+5sse2368100 0.0 1020163
11:00+11s345180 0.0 10181281
14:00+13s454593 0.0 10171498
17:00+14s475196 0.0 10141487
20:00+11sse3665100 0.0 1013199
9 may, sun
sun923:00+9sse3678100 0.0 1013113
02:00+8sse3587100 0.0 101283
05:00+7sse348592 0.0 101169
08:00+11sse37745 0.0 1010217
11:00+18sse48535 0.0 1008470
14:00+21s584689 0.0 1007949
17:00+23s5124980 0.0 10062069
20:00+18ssw367229 0.0 1006186
10 may, mon
mon1023:00+19ssw4126299 0.0 1006650
02:00+14e118499 0.0 100614
05:00+14sse388458 0.1 1007245
08:00+14ssw3118299 0.1 1009721
11:00+16sw3477100 0.1 1009838
14:00+16w4372100 0.3 1009704
17:00+12nw3692100 0.4 1008383
20:00+11sse1199100 12.6 100981